SKYSAT-C6

Last updated on Sun Nov 09 2025 00:02:32 GMT+0000 (Coordinated Universal Time)

1 42992U 17068F 25312.32656544 .00015512 00000+0 51704-3 0 9999 2 42992 97.4308 83.7381 0004765 144.4906 215.6653 15.31175236448490
UTC large
Height (km)
Speed (km/s)
/
Latitude / Longitude
Inclination (degrees)
Orbital Period (minutes)
Azimuth
Elevation
Range (km)
Doppler Factor

Next 0 passes for location: London (51.5072 / 0.1276)

Sorry there are no passes over London.